Flag for U.S.A. Weather past 2 weeks in Annapolis, Maryland, U.S.A.

Now
73 °F

Passing clouds.


Feels Like: 73 °F
Forecast: 69 / 84 °F
Wind: 7 mph from Southeast

Location: Annapolis - United States Naval Academy

Current Time: Aug 20, 2014 at 7:41:31 AM

Latest Report: Aug 20, 2014 at 6:54 AM


Visibility: 10 mi

Pressure: 29.96 "Hg

Humidity: 81%

Dew point: 67 °F

Location of AnnapolisLocation

Historic Weather in Annapolis — Graph

°F

Annapolis temperature yesterday

Maximum temperature yesterday: 81 °F (at 4:54 PM)
Minimum temperature yesterday: 71 °F (at 3:54 AM)
Average temperature yesterday: 76 °F

Past Weeks' High & Low Weather Summary

 TemperatureHumidityPressure
High85 °F (Aug 17, 3:54 PM)97% (Aug 12, 2:54 PM)30.14 "Hg (Aug 12, 2:54 PM)
Low60 °F (Aug 15, 6:54 AM)36% (Aug 15, 4:54 PM)29.73 "Hg (Aug 13, 2:59 AM)
Average75 °F67%29.97 "Hg
* Reported Aug 5 5:54 AM — Aug 20 5:54 AM, Annapolis, Weather by CustomWeather, © 2014

Note: Actual official high and low records may vary slightly from our data, if they occured in-between our weather recording intervals... More about our weather records

Advertising

Annapolis weather history for previous 24 hours

 ConditionsComfort  
Time TempWeatherWind HumidityBarometerVisibility
5:54 AM
Aug 20
70 °FOvercast.No wind87%29.94 "Hg10 mi
4:54 AM68 °FClear.No wind90%29.92 "Hg10 mi
3:54 AM71 °FClear.3 mph84%29.92 "Hg10 mi
2:54 AM72 °FClear.No wind76%29.92 "Hg10 mi
1:54 AM73 °FClear.5 mph69%29.93 "Hg10 mi
12:54 AM74 °FClear.7 mph64%29.93 "Hg10 mi
11:54 PM
Aug 19
75 °FClear.9 mph71%29.92 "Hg10 mi
10:54 PM76 °FClear.13 mph69%29.91 "Hg10 mi
9:54 PM76 °FClear.7 mph72%29.91 "Hg10 mi
8:54 PM77 °FSunny.7 mph66%29.89 "Hg10 mi
7:54 PM78 °FSunny.7 mph64%29.87 "Hg10 mi
6:54 PM80 °FSunny.3 mph60%29.86 "Hg10 mi
5:54 PM81 °FSunny.6 mph54%29.86 "Hg10 mi
4:54 PM81 °FSunny.7 mph56%29.86 "Hg10 mi
3:54 PM80 °FPassing clouds.8 mph56%29.86 "Hg10 mi
2:54 PM80 °FPassing clouds.8 mph60%29.87 "Hg10 mi
1:54 PM79 °FPartly sunny.7 mph62%29.88 "Hg10 mi
12:54 PM79 °FScattered clouds.6 mph67%29.88 "Hg10 mi
11:54 AM76 °FMore clouds than sun.6 mph80%29.89 "Hg10 mi
10:54 AM75 °FOvercast.5 mph79%29.89 "Hg10 mi
9:54 AM74 °FOvercast.8 mph85%29.86 "Hg10 mi
8:54 AM74 °FOvercast.9 mph79%29.85 "Hg10 mi
7:54 AM73 °FPartly sunny.8 mph81%29.84 "Hg10 mi
Weather by CustomWeather, © 2014

See weather overviewHow to use our weather pages